Terrell, TX

7:46 PM CST on December 11, 2017 (GMT -0600)
Terrell Municipal

Weather History for KTRL - February, 2014

Change the Weather History Date:

Wednesday, February 26, 2014

  Actual Average (KGVT) Record (KGVT)
Temperature  
Mean Temperature 38 °F -  
Max Temperature 43 °F 57 °F 82 °F (2009)
Min Temperature 32 °F 42 °F 26 °F (2002)
Degree Days  
Heating Degree Days 28    
Moisture  
Dew Point 20 °F    
Average Humidity 51    
Maximum Humidity 70    
Minimum Humidity 34    
Precipitation  
Precipitation 0.00 in - - ()
Sea Level Pressure  
Sea Level Pressure 30.22 in    
Wind  
Wind Speed 15 mph (North)    
Max Wind Speed 22 mph    
Max Gust Speed 33 mph    
Visibility 10 miles    
Events Rain    
Averages and records for this station are not official NWS values.
T = Trace of Precipitation, MM = Missing Value Source: NWS Daily Summary

Daily Weather History Graph

Daily Weather History Graph

Search for Another Location

Airport or City:

Trip Planner

Search our weather history database for the weather conditions in past years. The results will help you decide how hot, cold, wet, or windy it might be!

Date:

Astronomy

Feb. 26, 2014 Rise Set
Actual Time 6:56 AM CST 6:20 PM CST
Civil Twilight 6:31 AM CST 6:44 PM CST
Nautical Twilight 6:02 AM CST 7:13 PM CST
Astronomical Twilight 5:34 AM CST 7:41 PM CST
Moon 4:36 AM CST (2/26) 3:41 PM CST (2/26)
Length of Visible Light 12h 13m
Length of Day
11h 23m
Waning Crescent, 10% of the Moon is Illuminated
Feb 26
Waning Crescent
Mar 1
New
Mar 8
First Quarter
Mar 16
Full
Mar 23
Last Quarter

Hourly Weather History & Observations

Time (CST) Temp. Windchill Dew Point Humidity Pressure Visibility Wind Dir Wind Speed Gust Speed Precip Events Conditions
12:53 AM 42.1 °F 34.5 °F 33.1 °F 70% 30.15 in 10.0 mi North 15.0 mph 24.2 mph 0.00 in   Overcast
1:53 AM 41.0 °F 33.1 °F 30.9 °F 67% 30.18 in 10.0 mi North 15.0 mph 24.2 mph 0.00 in   Overcast
2:03 AM 41.0 °F 34.3 °F 30.9 °F 67% 30.19 in 10.0 mi North 11.5 mph 21.9 mph N/A   Overcast
2:48 AM 39.2 °F 29.6 °F 30.2 °F 70% 30.19 in 10.0 mi North 19.6 mph 29.9 mph N/A   Overcast
2:53 AM 39.0 °F 29.9 °F 28.9 °F 67% 30.20 in 10.0 mi North 17.3 mph 29.9 mph 0.00 in Rain Light Rain
3:10 AM 39.0 °F 28.8 °F 27.0 °F 62% 30.20 in 10.0 mi North 21.9 mph 33.4 mph 0.00 in   Overcast
3:28 AM 39.0 °F 31.4 °F 26.1 °F 60% 30.20 in 10.0 mi North 12.7 mph 28.8 mph 0.00 in   Overcast
3:36 AM 39.0 °F 31.0 °F 26.1 °F 60% 30.21 in 10.0 mi North 13.8 mph 25.3 mph 0.00 in   Overcast
3:53 AM 37.9 °F 28.5 °F 24.1 °F 57% 30.21 in 10.0 mi North 17.3 mph 26.5 mph 0.00 in   Overcast
4:44 AM 36.0 °F 26.0 °F 21.9 °F 57% 30.22 in 10.0 mi North 17.3 mph 29.9 mph N/A   Overcast
4:53 AM 36.0 °F 25.3 °F 21.9 °F 57% 30.22 in 10.0 mi North 19.6 mph 26.5 mph N/A   Overcast
5:53 AM 35.1 °F 25.2 °F 19.9 °F 54% 30.25 in 10.0 mi North 16.1 mph 27.6 mph N/A   Overcast
6:53 AM 33.1 °F 22.6 °F 19.0 °F 56% 30.28 in 10.0 mi North 16.1 mph 25.3 mph N/A   Overcast
7:53 AM 33.1 °F 23.0 °F 17.1 °F 52% 30.30 in 10.0 mi North 15.0 mph 23.0 mph N/A   Overcast
8:53 AM 32.0 °F 19.8 °F 12.9 °F 45% 30.32 in 10.0 mi North 20.7 mph 26.5 mph N/A   Scattered Clouds
9:53 AM 33.1 °F 22.6 °F 14.0 °F 46% 30.32 in 10.0 mi North 16.1 mph 25.3 mph N/A   Clear
10:53 AM 34.0 °F 25.0 °F 15.1 °F 46% 30.31 in 10.0 mi North 12.7 mph - N/A   Clear
11:53 AM 37.9 °F 29.2 °F 15.1 °F 39% 30.28 in 10.0 mi NNW 15.0 mph 20.7 mph N/A   Clear
12:53 PM 41.0 °F 33.5 °F 16.0 °F 36% 30.24 in 10.0 mi North 13.8 mph 19.6 mph N/A   Clear
1:53 PM 42.1 °F 34.5 °F 16.0 °F 35% 30.21 in 10.0 mi North 15.0 mph 20.7 mph N/A   Clear
2:53 PM 42.1 °F 34.9 °F 16.0 °F 35% 30.19 in 10.0 mi NNW 13.8 mph 19.6 mph N/A   Clear
3:53 PM 42.1 °F 34.9 °F 15.1 °F 34% 30.18 in 10.0 mi North 13.8 mph - N/A   Clear
4:53 PM 43.0 °F 36.8 °F 16.0 °F 34% 30.17 in 10.0 mi North 11.5 mph - N/A   Clear
5:53 PM 41.0 °F 35.2 °F 15.1 °F 35% 30.17 in 10.0 mi North 9.2 mph - N/A   Clear
6:53 PM 37.9 °F 34.4 °F 16.0 °F 41% 30.18 in 10.0 mi North 4.6 mph - N/A   Clear
7:53 PM 37.0 °F 33.3 °F 16.0 °F 42% 30.18 in 10.0 mi North 4.6 mph - N/A   Clear
8:53 PM 36.0 °F 32.1 °F 16.0 °F 44% 30.19 in 10.0 mi North 4.6 mph - N/A   Clear
9:53 PM 33.1 °F 30.0 °F 18.0 °F 54% 30.20 in 10.0 mi North 3.5 mph - N/A   Clear
10:53 PM 32.0 °F 27.5 °F 17.1 °F 54% 30.20 in 10.0 mi North 4.6 mph - N/A   Clear